H2SAT (HEINRICH HERTZ)

Last updated on Thu Aug 13 2026 00:03:03 GMT+0000 (Coordinated Universal Time)

1 57213U 23093A 26224.57209480 -.00000016 00000+0 00000+0 0 9992 2 57213 0.0129 45.4156 0000838 353.0367 129.2177 1.00269290 11485
UTC large
Height (km)
Speed (km/s)
/
Latitude / Longitude
Inclination (degrees)
Orbital Period (minutes)
Azimuth
Elevation
Range (km)
Doppler Factor

Next 0 passes for location: London (51.5072 / 0.1276)

No passes found over London.
H2SAT (HEINRICH HERTZ)